sat.trackr.live / text

‹ back to catalog

STARLINK-3831

NORAD 52332 · 2022-045B

PAYLOAD ACTIVE UNKNOWN

§ Identity

Operator
Country
US
Launch date
2022-04-29
Launch site
AFETR
Launch vehicle
Mass (kg)
RCS (m²)

Purposes: comms

External: N2YO · Heavens-Above · Gunter

§ Orbital elements

Epoch: 2026-05-24T13:41:44.152224Z

Period
95.44 min
Inclination
53.2141°
Eccentricity
0.0001010
Mean motion
15.08842956 rev/d
Perigee alt
539.0 km
Apogee alt
540.4 km
Semi-major
6,917.9 km
B*
-9.0925e-5
RAAN
228.4876°
Arg perigee
90.1929°
Mean anomaly
269.9179°
Rev number
22,709

§ Raw data

STARLINK-38311 52332U 22045B   26144.57064991 -.00001735  00000+0 -90925-4 0  99922 52332  53.2141 228.4876 0001010  90.1929 269.9179 15.08842956227093

JSON: /api/v1/satellites/52332 · /tle

For live sub-satellite position, see the globe view (requires WebGL).

§ Visibility from observer

Set your observer location to see the next 7 days of passes ≥ 10°. The values pass through the URL so the page stays shareable.

No JS? Fill the form by hand. The geolocation button needs JavaScript.